Location: De Forest
(43.2480°N, 89.3440°W)
Time: 16:46:11
(UTC-05:00)

Tiangong 2 - Pass Details

Date: 26 May 2019
Orbit: 376 x 389 km, 42.8° (Epoch: 18 June)

Event Time Altitude Azimuth Distance (km) Brightness Sun altitude
Rises 22:30:29 0° 278° (W) 2,237 5.6 -17.5°
Reaches altitude 10° 22:32:36 10° 272° (W) 1,383 4.3 -17.7°
Enters shadow 22:35:14 41° 221° (SW) 557 1.7 -18.0°
